Wetterdaten: Freitag, 13.02.2015
Datum Zeit Temp. A. Feuchte A. Luftdruck Regen Wind Richtung Richtung Sonnenschein ET UV Solar Taupunkt Windchill Windben Empfang
13.02.2015 00:00 -0,9 C 82 % 1024,4 hPa 0,0 l/m 0,0 km/h (0 Bft) S 190 0 min 0,000 mm 0,0 UV-I 0 W/m -3,6 C -0,9 C 0,0 km/h (0 Bft) 0,00 %
13.02.2015 00:15 -0,9 C 82 % 1024,4 hPa 0,0 l/m 0,0 km/h (0 Bft) S-SW 201 0 min 0,000 mm 0,0 UV-I 0 W/m -3,6 C -0,9 C 0,0 km/h (0 Bft) 0,00 %
13.02.2015 00:30 -0,9 C 83 % 1024,3 hPa 0,0 l/m 0,0 km/h (0 Bft) S 175 0 min 0,000 mm 0,0 UV-I 0 W/m -3,4 C -0,9 C 0,0 km/h (0 Bft) 0,00 %
13.02.2015 00:45 -0,8 C 83 % 1024,3 hPa 0,0 l/m 0,0 km/h (0 Bft) SW 216 0 min 0,000 mm 0,0 UV-I 0 W/m -3,3 C -0,8 C 0,0 km/h (0 Bft) 0,00 %
13.02.2015 01:00 -0,8 C 82 % 1024,1 hPa 0,0 l/m 0,0 km/h (0 Bft) S-SW 206 0 min 0,000 mm 0,0 UV-I 0 W/m -3,5 C -0,8 C 0,0 km/h (0 Bft) 0,00 %
13.02.2015 01:15 -0,8 C 82 % 1024,2 hPa 0,0 l/m 0,0 km/h (0 Bft) S-SW 193 0 min 0,000 mm 0,0 UV-I 0 W/m -3,5 C -0,8 C 0,0 km/h (0 Bft) 0,00 %
13.02.2015 01:30 -0,8 C 82 % 1024,1 hPa 0,0 l/m 0,0 km/h (0 Bft) S 184 0 min 0,000 mm 0,0 UV-I 0 W/m -3,5 C -0,8 C 0,0 km/h (0 Bft) 0,00 %
13.02.2015 01:45 -0,9 C 82 % 1024,3 hPa 0,0 l/m 0,0 km/h (0 Bft) S-SW 193 0 min 0,000 mm 0,0 UV-I 0 W/m -3,6 C -0,9 C 0,0 km/h (0 Bft) 0,00 %
13.02.2015 02:00 -0,9 C 82 % 1024,1 hPa 0,0 l/m 0,0 km/h (0 Bft) S-SW 200 0 min 0,000 mm 0,0 UV-I 0 W/m -3,6 C -0,9 C 0,0 km/h (0 Bft) 0,00 %
13.02.2015 02:15 -1,0 C 82 % 1024,1 hPa 0,0 l/m 0,0 km/h (0 Bft) S-SW 202 0 min 0,000 mm 0,0 UV-I 0 W/m -3,7 C -1,0 C 0,0 km/h (0 Bft) 0,00 %
13.02.2015 02:30 -0,9 C 82 % 1023,7 hPa 0,0 l/m 0,0 km/h (0 Bft) SW 228 0 min 0,000 mm 0,0 UV-I 0 W/m -3,6 C -0,9 C 0,0 km/h (0 Bft) 0,00 %
13.02.2015 02:45 -1,0 C 82 % 1023,7 hPa 0,0 l/m 0,0 km/h (0 Bft) S 181 0 min 0,000 mm 0,0 UV-I 0 W/m -3,7 C -1,0 C 0,0 km/h (0 Bft) 0,00 %
13.02.2015 03:00 -1,0 C 82 % 1023,7 hPa 0,0 l/m 0,0 km/h (0 Bft) O-NO 69 0 min 0,000 mm 0,0 UV-I 0 W/m -3,7 C -1,0 C 0,0 km/h (0 Bft) 0,00 %
13.02.2015 03:15 -1,1 C 82 % 1023,5 hPa 0,0 l/m 0,0 km/h (0 Bft) O-NO 66 0 min 0,000 mm 0,0 UV-I 0 W/m -3,8 C -1,1 C 0,0 km/h (0 Bft) 0,00 %
13.02.2015 03:30 -1,2 C 82 % 1023,5 hPa 0,0 l/m 0,0 km/h (0 Bft) S 176 0 min 0,000 mm 0,0 UV-I 0 W/m -3,9 C -1,2 C 0,0 km/h (0 Bft) 0,00 %
13.02.2015 03:45 -1,2 C 82 % 1023,5 hPa 0,0 l/m 0,0 km/h (0 Bft) S-SW 195 0 min 0,000 mm 0,0 UV-I 0 W/m -3,9 C -1,2 C 0,0 km/h (0 Bft) 0,00 %
13.02.2015 04:00 -1,2 C 82 % 1023,5 hPa 0,0 l/m 0,0 km/h (0 Bft) W-SW 251 0 min 0,000 mm 0,0 UV-I 0 W/m -3,9 C -1,2 C 0,0 km/h (0 Bft) 0,00 %
13.02.2015 04:15 -1,3 C 82 % 1023,4 hPa 0,0 l/m 0,0 km/h (0 Bft) S 180 0 min 0,000 mm 0,0 UV-I 0 W/m -4,0 C -1,3 C 0,0 km/h (0 Bft) 0,00 %
13.02.2015 04:30 -1,3 C 82 % 1023,5 hPa 0,0 l/m 0,4 km/h (0 Bft) SO 127 0 min 0,000 mm 0,0 UV-I 0 W/m -4,0 C -1,3 C 4,0 km/h (1 Bft) 0,00 %
13.02.2015 04:45 -1,3 C 82 % 1023,5 hPa 0,0 l/m 0,4 km/h (0 Bft) NO 52 0 min 0,000 mm 0,0 UV-I 0 W/m -4,0 C -1,3 C 4,0 km/h (1 Bft) 0,00 %
13.02.2015 05:00 -1,4 C 82 % 1023,4 hPa 0,0 l/m 0,0 km/h (0 Bft) S 174 0 min 0,000 mm 0,0 UV-I 0 W/m -4,1 C -1,4 C 0,0 km/h (0 Bft) 0,00 %
13.02.2015 05:15 -1,5 C 82 % 1023,2 hPa 0,0 l/m 3,2 km/h (1 Bft) O 101 0 min 0,000 mm 0,0 UV-I 0 W/m -4,2 C -1,5 C 7,9 km/h (2 Bft) 0,00 %
13.02.2015 05:30 -1,5 C 83 % 1023,2 hPa 0,0 l/m 0,0 km/h (0 Bft) S 187 0 min 0,000 mm 0,0 UV-I 0 W/m -4,0 C -1,5 C 0,0 km/h (0 Bft) 0,00 %
13.02.2015 05:45 -1,7 C 83 % 1023,1 hPa 0,0 l/m 0,0 km/h (0 Bft) S 172 0 min 0,000 mm 0,0 UV-I 0 W/m -4,2 C -1,7 C 0,0 km/h (0 Bft) 0,00 %
13.02.2015 06:00 -1,8 C 83 % 1023,2 hPa 0,0 l/m 0,0 km/h (0 Bft) S-SW 192 0 min 0,000 mm 0,0 UV-I 0 W/m -4,3 C -1,8 C 0,0 km/h (0 Bft) 0,00 %
13.02.2015 06:15 -1,7 C 83 % 1023,1 hPa 0,0 l/m 0,0 km/h (0 Bft) SO 137 0 min 0,000 mm 0,0 UV-I 0 W/m -4,2 C -1,7 C 0,0 km/h (0 Bft) 0,00 %
13.02.2015 06:30 -1,7 C 84 % 1023,0 hPa 0,0 l/m 0,0 km/h (0 Bft) S 189 0 min 0,000 mm 0,0 UV-I 0 W/m -4,0 C -1,7 C 0,0 km/h (0 Bft) 0,00 %
13.02.2015 06:45 -1,8 C 84 % 1023,2 hPa 0,0 l/m 0,0 km/h (0 Bft) S 175 0 min 0,000 mm 0,0 UV-I 0 W/m -4,1 C -1,8 C 0,0 km/h (0 Bft) 0,00 %
13.02.2015 07:00 -1,9 C 84 % 1023,3 hPa 0,0 l/m 4,0 km/h (1 Bft) O 99 0 min 0,000 mm 0,0 UV-I 0 W/m -4,2 C -1,9 C 4,0 km/h (1 Bft) 0,00 %
13.02.2015 07:15 -1,9 C 84 % 1023,1 hPa 0,0 l/m 0,7 km/h (0 Bft) S 188 0 min 0,000 mm 0,0 UV-I 0 W/m -4,2 C -1,9 C 4,0 km/h (1 Bft) 0,00 %
13.02.2015 07:30 -1,8 C 84 % 1023,3 hPa 0,0 l/m 0,0 km/h (0 Bft) S 174 0 min 0,000 mm 0,0 UV-I 0 W/m -4,1 C -1,8 C 0,0 km/h (0 Bft) 0,00 %
13.02.2015 07:45 -1,8 C 84 % 1023,3 hPa 0,0 l/m 0,0 km/h (0 Bft) SO 125 0 min 0,000 mm 0,0 UV-I 1 W/m -4,1 C -1,8 C 0,0 km/h (0 Bft) 0,00 %
13.02.2015 08:00 -1,8 C 84 % 1023,2 hPa 0,0 l/m 6,8 km/h (2 Bft) O-SO 121 0 min 0,000 mm 0,0 UV-I 6 W/m -4,1 C -2,2 C 11,9 km/h (2 Bft) 0,00 %
13.02.2015 08:15 -1,8 C 84 % 1023,0 hPa 0,0 l/m 0,0 km/h (0 Bft) N-NW 347 0 min 0,000 mm 0,0 UV-I 20 W/m -4,1 C -1,8 C 0,0 km/h (0 Bft) 0,00 %
13.02.2015 08:30 -1,9 C 84 % 1023,5 hPa 0,0 l/m 0,0 km/h (0 Bft) SO 130 0 min 0,000 mm 0,0 UV-I 24 W/m -4,2 C -1,9 C 0,0 km/h (0 Bft) 0,00 %
13.02.2015 08:45 -1,8 C 84 % 1023,3 hPa 0,0 l/m 0,7 km/h (0 Bft) SO 144 0 min 0,000 mm 1,0 UV-I 34 W/m -4,1 C -1,8 C 4,0 km/h (1 Bft) 0,00 %
13.02.2015 09:00 -1,8 C 84 % 1023,3 hPa 0,0 l/m 0,0 km/h (0 Bft) N-NO 21 0 min 0,000 mm 1,0 UV-I 40 W/m -4,1 C -1,8 C 0,0 km/h (0 Bft) 0,00 %
13.02.2015 09:15 -1,8 C 84 % 1023,3 hPa 0,0 l/m 0,4 km/h (0 Bft) S 172 0 min 0,000 mm 1,0 UV-I 46 W/m -4,1 C -1,8 C 4,0 km/h (1 Bft) 0,00 %
13.02.2015 09:30 -1,6 C 83 % 1023,1 hPa 0,0 l/m 2,2 km/h (1 Bft) O 83 0 min 0,000 mm 1,0 UV-I 68 W/m -4,1 C -1,6 C 7,9 km/h (2 Bft) 0,00 %
13.02.2015 09:45 -1,5 C 83 % 1023,1 hPa 0,0 l/m 0,0 km/h (0 Bft) NO 47 0 min 0,000 mm 1,0 UV-I 63 W/m -4,0 C -1,5 C 0,0 km/h (0 Bft) 0,00 %
13.02.2015 10:00 -1,8 C 83 % 1023,1 hPa 0,0 l/m 0,0 km/h (0 Bft) S-SW 210 0 min 0,000 mm 1,0 UV-I 70 W/m -4,3 C -1,8 C 0,0 km/h (0 Bft) 0,00 %
13.02.2015 10:15 -1,5 C 82 % 1022,9 hPa 0,0 l/m 0,0 km/h (0 Bft) SW 225 0 min 0,000 mm 1,0 UV-I 84 W/m -4,2 C -1,5 C 0,0 km/h (0 Bft) 0,00 %
13.02.2015 10:30 -1,3 C 81 % 1022,8 hPa 0,0 l/m 0,4 km/h (0 Bft) N 357 0 min 0,000 mm 1,0 UV-I 87 W/m -4,1 C -1,3 C 4,0 km/h (1 Bft) 0,00 %
13.02.2015 10:45 -1,5 C 82 % 1022,9 hPa 0,0 l/m 0,0 km/h (0 Bft) O-SO 121 0 min 0,000 mm 1,0 UV-I 89 W/m -4,2 C -1,5 C 0,0 km/h (0 Bft) 0,00 %
13.02.2015 11:00 -1,3 C 81 % 1022,8 hPa 0,0 l/m 0,0 km/h (0 Bft) SW 232 0 min 0,000 mm 1,0 UV-I 99 W/m -4,1 C -1,3 C 0,0 km/h (0 Bft) 0,00 %
13.02.2015 11:15 -1,4 C 80 % 1022,7 hPa 0,0 l/m 0,0 km/h (0 Bft) SW 225 0 min 0,000 mm 1,0 UV-I 103 W/m -4,4 C -1,4 C 0,0 km/h (0 Bft) 0,00 %
13.02.2015 11:30 -0,5 C 76 % 1022,3 hPa 0,0 l/m 0,0 km/h (0 Bft) SO 140 0 min 0,000 mm 1,0 UV-I 128 W/m -4,2 C -0,5 C 0,0 km/h (0 Bft) 0,00 %
13.02.2015 11:45 -0,6 C 76 % 1022,1 hPa 0,0 l/m 0,0 km/h (0 Bft) SO 142 0 min 0,000 mm 1,0 UV-I 125 W/m -4,3 C -0,6 C 0,0 km/h (0 Bft) 0,00 %
13.02.2015 12:00 -0,7 C 77 % 1021,9 hPa 0,0 l/m 0,0 km/h (0 Bft) O-SO 109 0 min 0,000 mm 1,0 UV-I 119 W/m -4,2 C -0,7 C 0,0 km/h (0 Bft) 0,00 %
13.02.2015 12:15 -0,7 C 77 % 1021,9 hPa 0,0 l/m 0,0 km/h (0 Bft) SO 127 0 min 0,000 mm 1,0 UV-I 115 W/m -4,2 C -0,7 C 0,0 km/h (0 Bft) 0,00 %
13.02.2015 12:30 -0,6 C 76 % 1021,8 hPa 0,0 l/m 1,4 km/h (1 Bft) O-SO 109 0 min 0,000 mm 1,0 UV-I 121 W/m -4,3 C -0,6 C 4,0 km/h (1 Bft) 0,00 %
13.02.2015 12:45 -0,8 C 77 % 1021,6 hPa 0,0 l/m 0,4 km/h (0 Bft) S-SO 151 0 min 0,000 mm 1,0 UV-I 112 W/m -4,3 C -0,8 C 4,0 km/h (1 Bft) 0,00 %
13.02.2015 13:00 -0,8 C 77 % 1021,4 hPa 0,0 l/m 0,4 km/h (0 Bft) S 172 0 min 0,000 mm 1,0 UV-I 119 W/m -4,3 C -0,8 C 4,0 km/h (1 Bft) 0,00 %
13.02.2015 13:15 -0,6 C 77 % 1020,9 hPa 0,0 l/m 0,0 km/h (0 Bft) S 182 0 min 0,000 mm 1,0 UV-I 115 W/m -4,1 C -0,6 C 0,0 km/h (0 Bft) 0,00 %
13.02.2015 13:30 -0,8 C 76 % 1021,1 hPa 0,0 l/m 0,0 km/h (0 Bft) O-SO 106 0 min 0,000 mm 1,0 UV-I 121 W/m -4,5 C -0,8 C 0,0 km/h (0 Bft) 0,00 %
13.02.2015 13:45 -0,5 C 75 % 1020,7 hPa 0,0 l/m 1,8 km/h (1 Bft) SO 137 0 min 0,000 mm 1,0 UV-I 125 W/m -4,4 C -0,5 C 4,0 km/h (1 Bft) 0,00 %
13.02.2015 14:00 -0,8 C 77 % 1020,8 hPa 0,0 l/m 0,7 km/h (0 Bft) O-NO 74 0 min 0,000 mm 1,0 UV-I 110 W/m -4,3 C -0,8 C 4,0 km/h (1 Bft) 0,00 %
13.02.2015 14:15 -0,9 C 77 % 1020,6 hPa 0,0 l/m 0,7 km/h (0 Bft) S-SO 161 0 min 0,000 mm 1,0 UV-I 96 W/m -4,4 C -0,9 C 4,0 km/h (1 Bft) 0,00 %
13.02.2015 14:30 -1,0 C 77 % 1020,7 hPa 0,0 l/m 0,0 km/h (0 Bft) S 172 0 min 0,000 mm 1,0 UV-I 89 W/m -4,5 C -1,0 C 0,0 km/h (0 Bft) 0,00 %
13.02.2015 14:45 -0,9 C 77 % 1020,5 hPa 0,0 l/m 0,0 km/h (0 Bft) S 171 0 min 0,000 mm 1,0 UV-I 80 W/m -4,4 C -0,9 C 0,0 km/h (0 Bft) 0,00 %
13.02.2015 15:00 -0,8 C 77 % 1020,4 hPa 0,0 l/m 0,4 km/h (0 Bft) O-NO 62 0 min 0,000 mm 1,0 UV-I 79 W/m -4,3 C -0,8 C 4,0 km/h (1 Bft) 0,00 %
13.02.2015 15:15 -0,9 C 78 % 1020,4 hPa 0,0 l/m 0,4 km/h (0 Bft) O-SO 106 0 min 0,000 mm 1,0 UV-I 69 W/m -4,2 C -0,9 C 4,0 km/h (1 Bft) 0,00 %
13.02.2015 15:30 -1,0 C 79 % 1020,3 hPa 0,0 l/m 4,3 km/h (1 Bft) O-SO 105 0 min 0,000 mm 1,0 UV-I 56 W/m -4,2 C -1,0 C 7,9 km/h (2 Bft) 0,00 %
13.02.2015 15:45 -1,2 C 80 % 1020,1 hPa 0,0 l/m 4,3 km/h (1 Bft) O 99 0 min 0,000 mm 1,0 UV-I 45 W/m -4,2 C -1,2 C 7,9 km/h (2 Bft) 0,00 %
13.02.2015 16:00 -1,4 C 81 % 1020,3 hPa 0,0 l/m 2,9 km/h (1 Bft) O-SO 105 0 min 0,000 mm 0,0 UV-I 36 W/m -4,2 C -1,4 C 4,0 km/h (1 Bft) 0,00 %
13.02.2015 16:15 -1,5 C 82 % 1020,1 hPa 0,0 l/m 6,5 km/h (2 Bft) O-SO 106 0 min 0,000 mm 0,0 UV-I 24 W/m -4,2 C -1,6 C 7,9 km/h (2 Bft) 0,00 %
13.02.2015 16:30 -1,5 C 81 % 1020,1 hPa 0,0 l/m 0,4 km/h (0 Bft) SO 143 0 min 0,000 mm 0,0 UV-I 18 W/m -4,3 C -1,5 C 4,0 km/h (1 Bft) 0,00 %
13.02.2015 16:45 -1,4 C 81 % 1020,0 hPa 0,0 l/m 1,4 km/h (1 Bft) O 101 0 min 0,000 mm 0,0 UV-I 7 W/m -4,2 C -1,4 C 4,0 km/h (1 Bft) 0,00 %
13.02.2015 17:00 -1,4 C 80 % 1020,0 hPa 0,0 l/m 1,8 km/h (1 Bft) SO 136 0 min 0,000 mm 0,0 UV-I 2 W/m -4,4 C -1,4 C 4,0 km/h (1 Bft) 0,00 %
13.02.2015 17:15 -1,4 C 80 % 1019,9 hPa 0,0 l/m 4,0 km/h (1 Bft) O 80 0 min 0,000 mm 0,0 UV-I 0 W/m -4,4 C -1,4 C 4,0 km/h (1 Bft) 0,00 %
13.02.2015 17:30 -1,4 C 81 % 1019,7 hPa 0,0 l/m 4,0 km/h (1 Bft) O-SO 110 0 min 0,000 mm 0,0 UV-I 0 W/m -4,2 C -1,4 C 4,0 km/h (1 Bft) 0,00 %
13.02.2015 17:45 -1,4 C 81 % 1019,5 hPa 0,0 l/m 1,8 km/h (1 Bft) SO 135 0 min 0,000 mm 0,0 UV-I 0 W/m -4,2 C -1,4 C 4,0 km/h (1 Bft) 0,00 %
13.02.2015 18:00 -1,4 C 81 % 1019,5 hPa 0,0 l/m 2,2 km/h (1 Bft) O-SO 103 0 min 0,000 mm 0,0 UV-I 0 W/m -4,2 C -1,4 C 4,0 km/h (1 Bft) 0,00 %
13.02.2015 18:15 -1,4 C 81 % 1019,3 hPa 0,0 l/m 5,8 km/h (2 Bft) O 79 0 min 0,000 mm 0,0 UV-I 0 W/m -4,2 C -1,4 C 7,9 km/h (2 Bft) 0,00 %
13.02.2015 18:30 -1,4 C 81 % 1019,3 hPa 0,0 l/m 0,0 km/h (0 Bft) S 172 0 min 0,000 mm 0,0 UV-I 0 W/m -4,2 C -1,4 C 0,0 km/h (0 Bft) 0,00 %
13.02.2015 18:45 -1,3 C 81 % 1019,3 hPa 0,0 l/m 0,4 km/h (0 Bft) SO 124 0 min 0,000 mm 0,0 UV-I 0 W/m -4,1 C -1,3 C 4,0 km/h (1 Bft) 0,00 %
13.02.2015 19:00 -1,4 C 81 % 1019,0 hPa 0,0 l/m 0,7 km/h (0 Bft) NO 45 0 min 0,000 mm 0,0 UV-I 0 W/m -4,2 C -1,4 C 4,0 km/h (1 Bft) 0,00 %
13.02.2015 19:15 -1,4 C 81 % 1018,9 hPa 0,0 l/m 0,0 km/h (0 Bft) S 173 0 min 0,000 mm 0,0 UV-I 0 W/m -4,2 C -1,4 C 0,0 km/h (0 Bft) 0,00 %
13.02.2015 19:30 -1,3 C 81 % 1018,7 hPa 0,0 l/m 0,0 km/h (0 Bft) N-NW 339 0 min 0,000 mm 0,0 UV-I 0 W/m -4,1 C -1,3 C 0,0 km/h (0 Bft) 0,00 %
13.02.2015 19:45 -1,4 C 81 % 1018,8 hPa 0,0 l/m 0,0 km/h (0 Bft) S 171 0 min 0,000 mm 0,0 UV-I 0 W/m -4,2 C -1,4 C 0,0 km/h (0 Bft) 0,00 %
13.02.2015 20:00 -1,3 C 81 % 1018,9 hPa 0,0 l/m 0,0 km/h (0 Bft) O-SO 107 0 min 0,000 mm 0,0 UV-I 0 W/m -4,1 C -1,3 C 0,0 km/h (0 Bft) 0,00 %
13.02.2015 20:15 -1,3 C 81 % 1018,4 hPa 0,0 l/m 0,4 km/h (0 Bft) N 354 0 min 0,000 mm 0,0 UV-I 0 W/m -4,1 C -1,3 C 4,0 km/h (1 Bft) 0,00 %
13.02.2015 20:30 -1,4 C 81 % 1018,2 hPa 0,0 l/m 0,0 km/h (0 Bft) S-SW 198 0 min 0,000 mm 0,0 UV-I 0 W/m -4,2 C -1,4 C 0,0 km/h (0 Bft) 0,00 %
13.02.2015 20:45 -1,4 C 81 % 1018,0 hPa 0,0 l/m 0,0 km/h (0 Bft) SO 141 0 min 0,000 mm 0,0 UV-I 0 W/m -4,2 C -1,4 C 0,0 km/h (0 Bft) 0,00 %
13.02.2015 21:00 -1,3 C 81 % 1018,1 hPa 0,0 l/m 0,0 km/h (0 Bft) O 93 0 min 0,000 mm 0,0 UV-I 0 W/m -4,1 C -1,3 C 0,0 km/h (0 Bft) 0,00 %
13.02.2015 21:15 -1,4 C 81 % 1017,9 hPa 0,0 l/m 0,0 km/h (0 Bft) SO 125 0 min 0,000 mm 0,0 UV-I 0 W/m -4,2 C -1,4 C 0,0 km/h (0 Bft) 0,00 %
13.02.2015 21:30 -1,4 C 81 % 1017,8 hPa 0,0 l/m 0,0 km/h (0 Bft) S 181 0 min 0,000 mm 0,0 UV-I 0 W/m -4,2 C -1,4 C 0,0 km/h (0 Bft) 0,00 %
13.02.2015 21:45 -1,4 C 81 % 1017,6 hPa 0,0 l/m 0,4 km/h (0 Bft) S-SO 154 0 min 0,000 mm 0,0 UV-I 0 W/m -4,2 C -1,4 C 4,0 km/h (1 Bft) 0,00 %
13.02.2015 22:00 -1,4 C 81 % 1017,6 hPa 0,0 l/m 0,0 km/h (0 Bft) S 174 0 min 0,000 mm 0,0 UV-I 0 W/m -4,2 C -1,4 C 0,0 km/h (0 Bft) 0,00 %
13.02.2015 22:15 -1,4 C 82 % 1017,4 hPa 0,0 l/m 0,0 km/h (0 Bft) SO 143 0 min 0,000 mm 0,0 UV-I 0 W/m -4,1 C -1,4 C 0,0 km/h (0 Bft) 0,00 %
13.02.2015 22:30 -1,4 C 82 % 1017,5 hPa 0,0 l/m 0,0 km/h (0 Bft) SW 227 0 min 0,000 mm 0,0 UV-I 0 W/m -4,1 C -1,4 C 0,0 km/h (0 Bft) 0,00 %
13.02.2015 22:45 -1,5 C 82 % 1017,2 hPa 0,0 l/m 0,0 km/h (0 Bft) S 174 0 min 0,000 mm 0,0 UV-I 0 W/m -4,2 C -1,5 C 0,0 km/h (0 Bft) 0,00 %
13.02.2015 23:00 -1,5 C 82 % 1017,1 hPa 0,0 l/m 0,7 km/h (0 Bft) O 96 0 min 0,000 mm 0,0 UV-I 0 W/m -4,2 C -1,5 C 4,0 km/h (1 Bft) 0,00 %
13.02.2015 23:15 -1,5 C 82 % 1016,9 hPa 0,0 l/m 0,0 km/h (0 Bft) S 181 0 min 0,000 mm 0,0 UV-I 0 W/m -4,2 C -1,5 C 0,0 km/h (0 Bft) 0,00 %
13.02.2015 23:30 -1,5 C 82 % 1017,0 hPa 0,0 l/m 0,0 km/h (0 Bft) S-SW 196 0 min 0,000 mm 0,0 UV-I 0 W/m -4,2 C -1,5 C 0,0 km/h (0 Bft) 0,00 %
_ Min-Zeit 07:00 13:45 23:15 - 00:00 - - - - - - 14:30 08:00 00:00 00:00
Minimum _ -1,9 C 75 % 1016,9 hPa - 0,0 km/h (0 Bft) - - - - - - -4,5 C -2,2 C 0,0 km/h (0 Bft) 0,00 %
_ Max-Zeit 11:30 06:30 00:00 00:00 08:00 - - 00:00 00:00 08:45 11:30 00:45 11:30 08:00 00:00
Maximum _ -0,5 C 84 % 1024,4 hPa 0,0 l/m 6,8 km/h
O-SO (2 Bft)
- - 0 min 0,000 mm 1,0 UV-I 128 W/m -3,3 C -0,5 C 11,9 km/h
O-SO (2 Bft)
0,00 %
Durchschnitt _ -1,3 C 81 % 1021,4 hPa #0,0 l/m 0,7 km/h (0 Bft) O - #0 min. #0,000 mm 1,0 UV-I 72 W/m -4,1 C -1,3 C 1,8 km/h (1 Bft) 0,00 %